Location: Degersen
(52.2871°N, 9.5716°E)
Time: 10:06:27
(UTC+00:00)

Cosmos 2341 Rocket - Pass Details

Date: 20 January 2026
Orbit: 967 x 1004 km, 82.9° (Epoch: 18 February)

Event Time Altitude Azimuth Distance (km) Brightness Sun altitude
Rises 05:32:21 0° 186° (S) 3,719 7.1 -15.8°
Reaches altitude 10° 05:34:53 10° 185° (S) 2,773 6.5 -15.5°
Maximum altitude 05:41:16 85° 100° (E) 1,014 4.1 -14.5°
Drops below altitude 10° 05:47:41 10° 11° (N) 2,781 6.3 -13.6°
Sets 05:50:13 0° 11° (NNE) 3,730 7.0 -13.2°
